Location: Lecco
(45.8566°N, 9.3977°E)
Time: 03:26:28
(UTC+02:00)

Transit 4A - Pass Details

Date: 22 August 2020
Orbit: 863 x 982 km, 66.8° (Epoch: 23 September)

Event Time Altitude Azimuth Distance (km) Brightness Sun altitude
Rises 07:30:22 0° 195° (SSW) 3,486 10.7 9.2°
Reaches altitude 10° 07:32:52 10° 191° (SSW) 2,567 10.1 9.6°
Maximum altitude 07:38:39 55° 116° (ESE) 1,099 9.0 10.6°
Drops below altitude 10° 07:44:40 10° 40° (NE) 2,665 11.1 11.7°
Sets 07:47:18 0° 36° (NE) 3,631 11.6 12.1°
